Location: B?ezina
(49.8085°N, 13.6013°E)
Time: 00:56:24
(UTC+00:00)

NOSS 2-1 (E) - Pass Details

Date: 19 May 2025
Orbit: 385 x 1749 km, 63.3° (Epoch: 07 May)

Event Time Altitude Azimuth Distance (km) Brightness Sun altitude
Exits shadow 22:21:20 86° 137° (SE) 423 2.6 -19.6°
Maximum altitude 22:21:21 86° 133° (SE) 422 2.6 -19.6°
Drops below altitude 10° 22:24:23 10° 44° (NE) 1,430 5.9 -19.7°
Sets 22:26:20 0° 44° (NE) 2,279 7.0 -19.8°
